Weather History for Bigfork, MN

Change the Weather History Date:

Sunday, September 9, 2012

  Actual Average (KGPZ) Record (KGPZ)
Temperature  
Mean Temperature 53 °F -  
Max Temperature 69 °F 72 °F 92 °F (1931)
Min Temperature 37 °F 47 °F 25 °F (1924)
Degree Days  
Heating Degree Days 12    
Growing Degree Days 3 (Base 50)    
Moisture  
Dew Point 45 °F    
Average Humidity 75    
Maximum Humidity 93    
Minimum Humidity 40    
Precipitation  
Precipitation 0.00 in - - ()
Sea Level Pressure  
Sea Level Pressure 30.13 in    
Wind  
Wind Speed 3 mph (West)    
Max Wind Speed 8 mph    
Max Gust Speed -    
Visibility 9 miles    
Events Fog    
Averages and records for this station are not official NWS values.
T = Trace of Precipitation, MM = Missing Value Source: NWS Daily Summary

Daily Weather History Graph

Daily Weather History Graph

Search for Another Location

Airport:

Trip Planner

Search our weather history database for the weather conditions in past years. The results will help you decide how hot, cold, wet, or windy it might be!

Date:

Astronomy

Sep. 09, 2012 Rise Set
Actual Time 6:44 AM CDT 7:38 PM CDT
Civil Twilight 6:12 AM CDT 8:09 PM CDT
Nautical Twilight 5:35 AM CDT 8:46 PM CDT
Astronomical Twilight 4:55 AM CDT 9:26 PM CDT
Moon No Moon Rise 3:43 PM CDT (9/9)
Length of Visible Light 13h 56m
Length of Day
12h 53m
Last Quarter, 39% of the Moon is Illuminated
Sep 9
Last Quarter
Sep 15
New
Sep 22
First Quarter
Sep 29
Full
Oct 8
Last Quarter

Hourly Weather History & Observations

Time (CDT) Temp. Windchill Dew Point Humidity Pressure Visibility Wind Dir Wind Speed Gust Speed Precip Events Conditions
12:17 AM 51.8 °F - 48.2 °F 88% 30.08 in 10.0 mi NNW 3.5 mph - N/A   Clear
12:37 AM 51.8 °F - 48.2 °F 88% 30.09 in 10.0 mi NW 4.6 mph - N/A   Clear
12:57 AM 51.8 °F - 48.2 °F 88% 30.09 in 10.0 mi NNW 3.5 mph - N/A   Clear
1:17 AM 51.8 °F - 48.2 °F 88% 30.10 in 10.0 mi NNW 3.5 mph - N/A   Clear
1:37 AM 50.0 °F - 46.4 °F 87% 30.10 in 10.0 mi NNW 3.5 mph - N/A   Clear
1:57 AM 50.0 °F - 46.4 °F 87% 30.10 in 10.0 mi NW 3.5 mph - N/A   Clear
2:17 AM 48.2 °F - 46.4 °F 93% 30.10 in 10.0 mi NNW 3.5 mph - N/A   Clear
2:37 AM 48.2 °F - 46.4 °F 93% 30.10 in 10.0 mi NW 4.6 mph - N/A   Clear
2:57 AM 48.2 °F - 46.4 °F 93% 30.11 in 10.0 mi NW 3.5 mph - N/A   Clear
3:17 AM 48.2 °F - 46.4 °F 93% 30.12 in 10.0 mi Calm Calm - N/A   Clear
3:37 AM 48.2 °F - 46.4 °F 93% 30.12 in 10.0 mi NNW 3.5 mph - N/A   Clear
3:57 AM 46.4 °F 44.3 °F 44.6 °F 93% 30.13 in 10.0 mi NNW 4.6 mph - N/A   Clear
4:17 AM 46.4 °F - 44.6 °F 93% 30.14 in 10.0 mi Calm Calm - N/A   Clear
4:37 AM 46.4 °F - 44.6 °F 93% 30.14 in 10.0 mi Calm Calm - N/A   Clear
4:57 AM 46.4 °F - 44.6 °F 93% 30.15 in 10.0 mi Calm Calm - N/A   Clear
5:17 AM 46.4 °F - 44.6 °F 93% 30.15 in 10.0 mi Calm Calm - N/A   Clear
5:37 AM 42.8 °F - 41.0 °F 93% 30.16 in 1.0 mi Calm Calm - N/A   Mist
5:57 AM 42.8 °F - 39.2 °F 87% 30.16 in 0.2 mi Calm Calm - N/A Fog Fog
6:17 AM 41.0 °F - 39.2 °F 93% 30.17 in 0.2 mi Calm Calm - N/A Fog Fog
6:37 AM 39.2 °F - 37.4 °F 93% 30.18 in 0.2 mi Calm Calm - N/A Fog Fog
6:57 AM 37.4 °F - 35.6 °F 93% 30.18 in 4.0 mi Calm Calm - N/A   Scattered Clouds
7:17 AM 37.4 °F - 35.6 °F 93% 30.19 in 0.8 mi Calm Calm - N/A   Mist
7:37 AM 39.2 °F - 37.4 °F 93% 30.19 in 1.2 mi Calm Calm - N/A   Mist
7:57 AM 42.8 °F - 39.2 °F 87% 30.19 in 2.0 mi Calm Calm - N/A   Clear
8:17 AM 46.4 °F - 44.6 °F 93% 30.19 in 10.0 mi Calm Calm - N/A   Clear
8:37 AM 48.2 °F - 46.4 °F 93% 30.19 in 10.0 mi Calm Calm - N/A   Clear
8:57 AM 51.8 °F - 48.2 °F 88% 30.19 in 10.0 mi North 4.6 mph - N/A   Clear
9:17 AM 53.6 °F - 48.2 °F 82% 30.19 in 10.0 mi Calm Calm - N/A   Clear
9:37 AM 55.4 °F - 50.0 °F 82% 30.20 in 10.0 mi NNE 4.6 mph - N/A   Clear
9:57 AM 55.4 °F - 48.2 °F 77% 30.19 in 10.0 mi Calm Calm - N/A   Clear
10:17 AM 57.2 °F - 48.2 °F 72% 30.19 in 10.0 mi West 3.5 mph - N/A   Scattered Clouds
10:37 AM 57.2 °F - 48.2 °F 72% 30.19 in 10.0 mi Calm Calm - N/A   Scattered Clouds
10:57 AM 57.2 °F - 46.4 °F 67% 30.19 in 10.0 mi Calm Calm - N/A   Clear
11:17 AM 62.6 °F - 48.2 °F 59% 30.19 in 10.0 mi Calm Calm - N/A   Mostly Cloudy
11:37 AM 60.8 °F - 46.4 °F 59% 30.19 in 10.0 mi Calm Calm - N/A   Mostly Cloudy
11:57 AM 62.6 °F - 46.4 °F 55% 30.19 in 10.0 mi WSW 6.9 mph - N/A   Scattered Clouds
12:17 PM 62.6 °F - 46.4 °F 55% 30.18 in 10.0 mi Calm Calm - N/A   Scattered Clouds
12:37 PM 62.6 °F - 44.6 °F 52% 30.18 in 10.0 mi Calm Calm - N/A   Scattered Clouds
12:57 PM 64.4 °F - 44.6 °F 49% 30.18 in 10.0 mi Calm Calm - N/A   Scattered Clouds
1:17 PM 62.6 °F - 44.6 °F 52% 30.17 in 10.0 mi WSW 5.8 mph - N/A   Scattered Clouds
1:37 PM 66.2 °F - 46.4 °F 49% 30.16 in 10.0 mi SW 5.8 mph - N/A   Clear
1:57 PM 64.4 °F - 44.6 °F 49% 30.16 in 10.0 mi Calm Calm - N/A   Scattered Clouds
2:17 PM 66.2 °F - 44.6 °F 46% 30.15 in 10.0 mi WSW 6.9 mph - N/A   Clear
2:37 PM 66.2 °F - 44.6 °F 46% 30.14 in 10.0 mi West 3.5 mph - N/A   Clear
2:57 PM 68.0 °F - 44.6 °F 43% 30.13 in 10.0 mi SSW 6.9 mph - N/A   Clear
3:17 PM 68.0 °F - 44.6 °F 43% 30.13 in 10.0 mi Calm Calm - N/A   Clear
3:37 PM 69.8 °F - 44.6 °F 40% 30.13 in 10.0 mi South 8.1 mph - N/A   Clear
3:57 PM 68.0 °F - 44.6 °F 43% 30.12 in 10.0 mi South 4.6 mph - N/A   Clear
4:17 PM 69.8 °F - 44.6 °F 40% 30.12 in 10.0 mi SW 8.1 mph - N/A   Clear
4:57 PM 69.8 °F - 46.4 °F 43% 30.11 in 10.0 mi South 6.9 mph - N/A   Clear
5:17 PM 68.0 °F - 44.6 °F 43% 30.10 in 10.0 mi SSW 6.9 mph - N/A   Clear
5:37 PM 66.2 °F - 46.4 °F 49% 30.10 in 10.0 mi SSW 8.1 mph - N/A   Clear
5:57 PM 66.2 °F - 46.4 °F 49% 30.10 in 10.0 mi South 8.1 mph - N/A   Clear
6:17 PM 66.2 °F - 46.4 °F 49% 30.09 in 10.0 mi SSW 6.9 mph - N/A   Clear
6:37 PM 64.4 °F - 44.6 °F 49% 30.08 in 10.0 mi SSW 4.6 mph - N/A   Clear
6:57 PM 62.6 °F - 44.6 °F 52% 30.08 in 10.0 mi SSW 3.5 mph - N/A   Clear
7:17 PM 57.2 °F - 46.4 °F 67% 30.07 in 10.0 mi SSW 3.5 mph - N/A   Clear
7:37 PM 53.6 °F - 46.4 °F 77% 30.08 in 10.0 mi Calm Calm - N/A   Clear
7:57 PM 51.8 °F - 46.4 °F 82% 30.07 in 10.0 mi Calm Calm - N/A   Clear
8:17 PM 51.8 °F - 44.6 °F 76% 30.07 in 10.0 mi Calm Calm - N/A   Clear
8:37 PM 48.2 °F - 44.6 °F 87% 30.07 in 10.0 mi Calm Calm - N/A   Clear
8:57 PM 48.2 °F - 44.6 °F 87% 30.07 in 10.0 mi Calm Calm - N/A   Clear
9:17 PM 48.2 °F - 44.6 °F 87% 30.07 in 10.0 mi Calm Calm - N/A   Clear
9:37 PM 46.4 °F - 42.8 °F 87% 30.06 in 10.0 mi Calm Calm - N/A   Clear
9:57 PM 46.4 °F - 42.8 °F 87% 30.06 in 10.0 mi Calm Calm - N/A   Clear
10:17 PM 44.6 °F - 42.8 °F 93% 30.06 in 10.0 mi Calm Calm - N/A   Clear
10:37 PM 44.6 °F - 41.0 °F 87% 30.05 in 10.0 mi Calm Calm - N/A   Clear
10:57 PM 42.8 °F - 41.0 °F 93% 30.05 in 10.0 mi Calm Calm - N/A   Clear
11:17 PM 42.8 °F - 41.0 °F 93% 30.05 in 10.0 mi Calm Calm - N/A   Clear
11:37 PM 42.8 °F - 39.2 °F 87% 30.04 in 10.0 mi Calm Calm - N/A   Clear
11:57 PM 42.8 °F - 39.2 °F 87% 30.03 in 10.0 mi Calm Calm - N/A   Clear